COSMOS 1275 DEB, 12704

Orbit data source: Space-Track

COSMOS 1275 DEB, 12704 is space debris in LEO originally from a launch on Thu, 04 Jun 1981 UTC launched from the Plesetsk Missile And Space Complex (PKMTR). Debris objects in space refer to the collection of defunct objects orbiting the Earth. Examples of debris include non-operational satellites, rocket bodies, and fragments generated from explosions, collisions, or faulty payload assembly.

Loading next visibility...
Identifier
12704, 1981-053AY
Orbit
LEO
Country
Flag of CISCIS
Related business
Manufacturer
Unknown
Mission
Spacecraft
Bus & Motor
Unknown
Mass
Unknown
Launch date (UTC)
1981-06-04 (45 years ago)
Launch vehicle
Unknown
Launch site
Plesetsk Missile And Space Complex (PKMTR)
Object type
Payload
Rocket body
Debris
Shape & HBR
Unknown shape, 0.1 m
Radar Cross Section
Small (<0.1 m²)

Expand to show TLE details & history
Last TLE update: 12 hours ago

TLE from 12 hours ago
0 COSMOS 1275 DEB
1 12704U 81053AY  26119.61240169  .00000320  00000-0  33104-3 0  9998
2 12704  82.9900 165.2710 0086182 117.3853   5.6909 13.71123801230561
Epoch: 2026-04-29T14:41Z
TLE epoch observation values (Epoch: 2026-04-29T14:41:51.506Z)
Latitude
56.27274°
Longitude
-103.32184°
Altitude
941.685 km
Speed
7.418 km/s
True Right ascension
22h 18m 51s
True Declination
56° 07' 04"
Sunlit
Object was in daylight at epoch
Visualization orbit readout
Latitude
Unknown
Longitude
Unknown
Altitude
Unknown
Speed
Unknown
Apparent Right ascension
Unknown
Apparent Declination
Unknown
Sunlit
N/A
Visualization observer readout
Local Sidereal Time
10:28:15
Azimuth
Unknown
Elevation
Unknown
Doppler factor
Unknown
Orbital elements
Apogee altitude
1,056.215 km
Perigee altitude
929.168 km
Semi-major axis
7,370.828 km
Eccentricity
0.00862
Inclination
82.99°
RAAN
165.271°
Arg. of periapsis
117.3853°
True anomaly
5.78989°
Mean anomaly
5.6909°
Eccentric anomaly
5.74029°
Mean motion
3.4298 °/min
Orbital period
104.96 mins
BSTAR
0.00033104
Loading maneuver chart data...
Computing Atmospheric mass density...
Loading historical data...
Loading historical data...
Loading historical data...
Loading historical data...
Loading historical data...
Loading historical data...
Loading historical data...

Documentation

Showing up to 5 results
|